CSZ648 UHWW-YBBN

Flight info

Callsign CSZ648
Flight time N/A
Altitude 33000
Route VATIS A900 RIVAT G711 DOHAE M814 KANSU Z56 IGRAS Y332 MIHOU Y38 ROKKO V55 KEC Y47 OTOWA A597 MAYON Y47 TAPOP A597 UNZ B586 PY B220 KELPI Y89 BESBO Y177 SMOKA
Aircraft A21N/M-SDE2E3FGHILRWXY/LB2

Departure

Time 2026-04-15 15:45
Airport Vladivostok International Airport (UHWW)

Arrival

Time N/A
Airport Brisbane International Airport (YBBN)
Time Latitude Longitude Altitude Speed Heading
2026-04-15 15:17 43.39753 132.16559 53 ft 0 kts 151°
2026-04-15 15:35 43.39759 132.16554 52 ft 2 kts 151°
2026-04-15 15:35 43.39772 132.16545 52 ft 2 kts 151°
2026-04-15 15:36 43.39785 132.16534 52 ft 2 kts 151°
2026-04-15 15:36 43.39799 132.16525 52 ft 2 kts 151°
2026-04-15 15:36 43.39813 132.16516 52 ft 2 kts 173°
2026-04-15 15:36 43.39828 132.16516 52 ft 2 kts 191°
2026-04-15 15:37 43.39842 132.16524 52 ft 2 kts 212°
2026-04-15 15:37 43.39853 132.16538 52 ft 2 kts 231°
2026-04-15 15:37 43.39858 132.16547 52 ft 1 kts 244°
2026-04-15 15:37 43.39860 132.16551 52 ft 0 kts 242°
2026-04-15 15:39 43.39846 132.16518 52 ft 8 kts 241°
2026-04-15 15:39 43.39804 132.16414 52 ft 14 kts 240°
2026-04-15 15:39 43.39755 132.16292 52 ft 14 kts 246°
2026-04-15 15:40 43.39795 132.16182 52 ft 14 kts 327°
2026-04-15 15:40 43.39883 132.16106 52 ft 14 kts 308°
2026-04-15 15:40 43.39856 132.15965 52 ft 18 kts 242°
2026-04-15 15:40 43.39782 132.15781 52 ft 25 kts 240°
2026-04-15 15:41 43.39688 132.15547 52 ft 30 kts 241°
2026-04-15 15:41 43.39584 132.15291 52 ft 30 kts 241°
2026-04-15 15:41 43.39480 132.15034 52 ft 30 kts 240°
2026-04-15 15:41 43.39376 132.14775 52 ft 31 kts 241°
2026-04-15 15:42 43.39271 132.14516 52 ft 31 kts 240°
2026-04-15 15:42 43.39166 132.14255 52 ft 31 kts 241°
2026-04-15 15:42 43.39060 132.13991 52 ft 31 kts 241°
2026-04-15 15:42 43.38957 132.13736 52 ft 29 kts 240°
2026-04-15 15:43 43.38857 132.13490 52 ft 28 kts 241°
2026-04-15 15:43 43.38776 132.13281 52 ft 15 kts 253°
2026-04-15 15:43 43.38822 132.13167 52 ft 15 kts 328°
2026-04-15 15:43 43.38898 132.13104 52 ft 6 kts 329°
2026-04-15 15:44 43.38929 132.13092 52 ft 4 kts 25°
2026-04-15 15:44 43.38952 132.13124 52 ft 4 kts 60°
2026-04-15 15:44 43.38954 132.13130 52 ft 0 kts 60°
2026-04-15 15:44 43.39006 132.13255 52 ft 44 kts 60°
2026-04-15 15:45 43.39266 132.13899 53 ft 108 kts 61°
2026-04-15 15:45 43.39728 132.15045 53 ft 162 kts 62°
2026-04-15 15:45 43.40335 132.16554 212 ft 191 kts 60°
2026-04-15 15:45 43.40979 132.18138 787 ft 193 kts 60°
2026-04-15 15:46 43.41639 132.19753 1478 ft 194 kts 59°
2026-04-15 15:46 43.42292 132.21326 2037 ft 193 kts 59°
2026-04-15 15:46 43.42966 132.22989 2282 ft 205 kts 60°
2026-04-15 15:46 43.43671 132.24747 2544 ft 217 kts 60°
2026-04-15 15:47 43.44373 132.26500 3081 ft 215 kts 59°
2026-04-15 15:47 43.45067 132.28232 3583 ft 214 kts 59°
2026-04-15 15:48 43.47222 132.33597 4928 ft 220 kts 58°
2026-04-15 15:48 43.47900 132.35452 5356 ft 223 kts 71°
2026-04-15 15:48 43.47924 132.37608 5740 ft 231 kts 108°
2026-04-15 15:48 43.47046 132.39424 6122 ft 236 kts 142°
2026-04-15 15:49 43.45635 132.40591 6531 ft 239 kts 152°
2026-04-15 15:49 43.44130 132.41634 6933 ft 242 kts 153°
2026-04-15 15:49 43.42633 132.42682 7339 ft 244 kts 152°
2026-04-15 15:49 43.41074 132.43596 7721 ft 246 kts 173°
2026-04-15 15:50 43.39404 132.43350 8066 ft 242 kts 210°
2026-04-15 15:50 43.38174 132.41921 8429 ft 235 kts 242°
2026-04-15 15:50 43.37389 132.39955 8789 ft 237 kts 240°
2026-04-15 15:50 43.36155 132.38370 8956 ft 255 kts 208°
2026-04-15 15:51 43.34472 132.37440 9179 ft 267 kts 202°
2026-04-15 15:51 43.32664 132.36581 9420 ft 277 kts 201°
2026-04-15 15:51 43.30816 132.35721 9645 ft 288 kts 201°
2026-04-15 15:51 43.28891 132.34821 9895 ft 297 kts 201°
2026-04-15 15:52 43.26944 132.33908 10314 ft 300 kts 201°
2026-04-15 15:52 43.24960 132.32977 10634 ft 307 kts 202°
2026-04-15 15:52 43.22887 132.31998 10833 ft 318 kts 202°
2026-04-15 15:52 43.20779 132.31001 11028 ft 328 kts 202°
2026-04-15 15:53 43.18586 132.29965 11219 ft 338 kts 201°
2026-04-15 15:53 43.16334 132.28902 11406 ft 349 kts 201°
2026-04-15 15:53 43.14017 132.27809 11586 ft 358 kts 201°
2026-04-15 15:53 43.11658 132.26698 11760 ft 368 kts 201°
2026-04-15 15:54 43.09198 132.25540 11975 ft 375 kts 201°
2026-04-15 15:54 43.06727 132.24381 12359 ft 378 kts 201°
2026-04-15 15:54 43.04245 132.23215 12774 ft 379 kts 202°
2026-04-15 15:54 43.01726 132.22031 13159 ft 381 kts 202°
2026-04-15 15:55 42.99249 132.20865 13541 ft 382 kts 202°
2026-04-15 15:55 42.96733 132.19682 13932 ft 383 kts 202°
2026-04-15 15:55 42.94211 132.18498 14315 ft 385 kts 202°
2026-04-15 15:55 42.91684 132.17313 14690 ft 386 kts 202°
2026-04-15 15:56 42.89125 132.16126 15059 ft 388 kts 200°
2026-04-15 15:56 42.86498 132.15292 15406 ft 393 kts 192°
2026-04-15 15:56 42.83764 132.15001 15743 ft 398 kts 184°
2026-04-15 15:56 42.80976 132.15157 16067 ft 402 kts 180°
2026-04-15 15:57 42.78188 132.15418 16370 ft 404 kts 180°
2026-04-15 15:57 42.75400 132.15691 16666 ft 406 kts 180°
2026-04-15 15:57 42.72561 132.15959 16965 ft 408 kts 180°
2026-04-15 15:57 42.69723 132.16220 17257 ft 410 kts 180°
2026-04-15 15:58 42.66898 132.16473 17540 ft 412 kts 180°
2026-04-15 15:58 42.64034 132.16727 17819 ft 413 kts 181°
2026-04-15 15:58 42.61182 132.16977 18091 ft 415 kts 181°
2026-04-15 15:58 42.58298 132.17229 18359 ft 417 kts 181°
2026-04-15 15:59 42.55400 132.17482 18625 ft 418 kts 181°
2026-04-15 15:59 42.52489 132.17734 18880 ft 420 kts 181°
2026-04-15 15:59 42.49580 132.17986 19129 ft 422 kts 181°
2026-04-15 15:59 42.46661 132.18239 19375 ft 423 kts 181°
2026-04-15 16:00 42.43698 132.18497 19619 ft 425 kts 181°
2026-04-15 16:00 42.40754 132.18751 19853 ft 427 kts 181°
2026-04-15 16:00 42.37827 132.19003 20081 ft 428 kts 181°
2026-04-15 16:00 42.34833 132.19261 20310 ft 430 kts 181°
2026-04-15 16:01 42.31853 132.19521 20535 ft 431 kts 181°
2026-04-15 16:01 42.28868 132.19785 20755 ft 433 kts 181°
2026-04-15 16:01 42.25889 132.20047 20968 ft 434 kts 182°
2026-04-15 16:01 42.22863 132.20311 21182 ft 435 kts 182°
2026-04-15 16:02 42.19851 132.20573 21391 ft 437 kts 182°
2026-04-15 16:02 42.16813 132.20837 21592 ft 438 kts 182°
2026-04-15 16:02 42.13754 132.21103 21793 ft 439 kts 182°
2026-04-15 16:02 42.10741 132.21362 21995 ft 441 kts 182°
2026-04-15 16:03 42.07676 132.21628 22188 ft 442 kts 182°
2026-04-15 16:03 42.04623 132.21890 22376 ft 443 kts 182°
2026-04-15 16:03 42.01516 132.22157 22566 ft 444 kts 182°
2026-04-15 16:03 41.98462 132.22420 22745 ft 445 kts 182°
2026-04-15 16:04 41.95367 132.22685 22922 ft 447 kts 182°
2026-04-15 16:04 41.92282 132.22949 23093 ft 448 kts 182°
2026-04-15 16:04 41.89179 132.23215 23259 ft 449 kts 182°
2026-04-15 16:04 41.86042 132.23485 23426 ft 450 kts 182°
2026-04-15 16:05 41.82932 132.23750 23590 ft 451 kts 182°
2026-04-15 16:05 41.79808 132.24019 23747 ft 452 kts 182°
2026-04-15 16:05 41.76669 132.24286 23902 ft 453 kts 182°
2026-04-15 16:05 41.73526 132.24553 24056 ft 454 kts 182°
2026-04-15 16:06 41.70358 132.24823 24204 ft 455 kts 182°
2026-04-15 16:06 41.67228 132.25089 24349 ft 456 kts 183°
2026-04-15 16:06 41.64029 132.25359 24499 ft 457 kts 183°
2026-04-15 16:06 41.60857 132.25627 24639 ft 458 kts 183°
2026-04-15 16:07 41.57722 132.25891 24771 ft 459 kts 183°
2026-04-15 16:07 41.54511 132.26161 24907 ft 460 kts 183°
2026-04-15 16:07 41.48148 132.26700 25243 ft 460 kts 183°
2026-04-15 16:08 41.44946 132.26968 25438 ft 460 kts 183°
2026-04-15 16:08 41.41772 132.27229 25622 ft 459 kts 183°
2026-04-15 16:08 41.38575 132.27490 25803 ft 459 kts 183°
2026-04-15 16:08 41.35417 132.27747 25980 ft 458 kts 183°
2026-04-15 16:09 41.32267 132.28001 26162 ft 458 kts 184°
2026-04-15 16:09 41.29070 132.28259 26340 ft 457 kts 184°
2026-04-15 16:09 41.25915 132.28513 26503 ft 457 kts 184°
2026-04-15 16:09 41.22734 132.28767 26665 ft 457 kts 184°
2026-04-15 16:10 41.19584 132.29021 26836 ft 456 kts 184°
2026-04-15 16:10 41.16428 132.29274 27012 ft 456 kts 184°
2026-04-15 16:10 41.13265 132.29527 27180 ft 455 kts 184°
2026-04-15 16:10 41.10135 132.29779 27336 ft 455 kts 184°
2026-04-15 16:11 41.06991 132.30037 27532 ft 454 kts 185°
2026-04-15 16:11 41.03822 132.30298 27775 ft 451 kts 186°
2026-04-15 16:11 41.00741 132.30550 28032 ft 448 kts 186°
2026-04-15 16:11 40.97617 132.30803 28304 ft 445 kts 187°
2026-04-15 16:12 40.94566 132.31049 28573 ft 442 kts 187°
2026-04-15 16:12 40.91489 132.31290 28802 ft 440 kts 188°
2026-04-15 16:12 40.88446 132.31525 28968 ft 439 kts 188°
2026-04-15 16:12 40.85413 132.31760 29112 ft 439 kts 188°
2026-04-15 16:13 40.82375 132.31998 29217 ft 440 kts 188°
2026-04-15 16:13 40.76308 132.32475 29227 ft 439 kts 188°
2026-04-15 16:14 40.70189 132.32956 29231 ft 439 kts 188°
2026-04-15 16:14 40.64116 132.33435 29232 ft 439 kts 188°
2026-04-15 16:15 40.58023 132.33916 29232 ft 439 kts 188°
2026-04-15 16:15 40.51943 132.34393 29232 ft 439 kts 188°
2026-04-15 16:16 40.45844 132.34872 29232 ft 439 kts 188°
2026-04-15 16:16 40.39761 132.35349 29232 ft 439 kts 188°
2026-04-15 16:17 40.33686 132.35823 29232 ft 439 kts 188°
2026-04-15 16:17 40.27629 132.36296 29232 ft 439 kts 188°
2026-04-15 16:18 40.21536 132.36771 29232 ft 439 kts 188°
2026-04-15 16:18 40.15450 132.37245 29232 ft 438 kts 188°
2026-04-15 16:19 40.09367 132.37718 29232 ft 438 kts 188°
2026-04-15 16:19 40.03302 132.38187 29232 ft 438 kts 188°
2026-04-15 16:20 39.97273 132.38654 29232 ft 438 kts 188°
2026-04-15 16:20 39.91215 132.39121 29232 ft 438 kts 188°
2026-04-15 16:21 39.85142 132.39592 29232 ft 438 kts 188°
2026-04-15 16:21 39.79081 132.40062 29231 ft 438 kts 188°
2026-04-15 16:22 39.73003 132.40530 29232 ft 438 kts 188°
2026-04-15 16:22 39.66917 132.40996 29232 ft 438 kts 188°
2026-04-15 16:23 39.60867 132.41458 29232 ft 438 kts 188°
2026-04-15 16:23 39.54785 132.41921 29232 ft 438 kts 188°
2026-04-15 16:24 39.48733 132.42381 29230 ft 438 kts 188°
2026-04-15 16:24 39.42642 132.42842 29211 ft 439 kts 188°
2026-04-15 16:25 39.36533 132.43292 29174 ft 440 kts 188°
2026-04-15 16:25 39.30428 132.43649 29131 ft 440 kts 188°
2026-04-15 16:26 39.24332 132.43994 29102 ft 440 kts 188°
2026-04-15 16:26 39.18245 132.44344 29084 ft 441 kts 188°
2026-04-15 16:27 39.12108 132.44699 29071 ft 441 kts 188°
2026-04-15 16:27 39.06018 132.45052 29059 ft 441 kts 188°
2026-04-15 16:28 38.99907 132.45399 29047 ft 442 kts 188°
2026-04-15 16:28 38.93753 132.45746 29041 ft 445 kts 187°
2026-04-15 16:29 38.87558 132.46100 29039 ft 448 kts 187°
2026-04-15 16:29 38.81329 132.46468 29040 ft 449 kts 187°
2026-04-15 16:30 38.75076 132.46831 29040 ft 449 kts 187°
2026-04-15 16:30 38.68853 132.47186 29039 ft 449 kts 187°
2026-04-15 16:31 38.62633 132.47705 29040 ft 454 kts 182°
2026-04-15 16:31 38.56354 132.48889 29041 ft 458 kts 180°
2026-04-15 16:32 38.50091 132.50150 29040 ft 457 kts 180°
2026-04-15 16:32 38.43846 132.51399 29040 ft 458 kts 180°
2026-04-15 16:33 38.37550 132.52657 29040 ft 458 kts 180°
2026-04-15 16:33 38.31279 132.53903 29040 ft 458 kts 180°
2026-04-15 16:34 38.25026 132.55147 29041 ft 458 kts 180°
2026-04-15 16:34 38.18734 132.56395 29041 ft 458 kts 180°
2026-04-15 16:35 38.12488 132.57632 29040 ft 458 kts 180°
2026-04-15 16:35 38.06175 132.58879 29040 ft 458 kts 180°
2026-04-15 16:36 37.99914 132.60113 29040 ft 458 kts 180°
2026-04-15 16:36 37.93607 132.61360 29040 ft 458 kts 180°
2026-04-15 16:37 37.87323 132.62605 29039 ft 457 kts 180°
2026-04-15 16:37 37.81051 132.63847 29040 ft 457 kts 180°
2026-04-15 16:38 37.74818 132.65077 29039 ft 457 kts 181°
2026-04-15 16:38 37.68532 132.66341 29040 ft 457 kts 181°
2026-04-15 16:39 37.62291 132.67580 29040 ft 457 kts 181°
2026-04-15 16:39 37.56038 132.68813 29040 ft 456 kts 181°
2026-04-15 16:40 37.49768 132.70041 29041 ft 456 kts 181°
2026-04-15 16:40 37.43527 132.71257 29040 ft 456 kts 181°
2026-04-15 16:41 37.37281 132.72470 29040 ft 456 kts 181°
2026-04-15 16:41 37.31028 132.73686 29039 ft 456 kts 181°
2026-04-15 16:42 37.24769 132.74973 29040 ft 457 kts 180°
2026-04-15 16:42 37.18509 132.76271 29040 ft 457 kts 180°
2026-04-15 16:43 37.12272 132.77554 29041 ft 457 kts 180°
2026-04-15 16:43 37.06005 132.78830 29040 ft 457 kts 180°
2026-04-15 16:44 36.99715 132.80109 29041 ft 457 kts 179°
2026-04-15 16:44 36.93469 132.81381 29040 ft 458 kts 178°
2026-04-15 16:45 36.87185 132.82666 29040 ft 457 kts 178°
2026-04-15 16:45 36.80905 132.83940 29040 ft 458 kts 178°
2026-04-15 16:46 36.74625 132.85211 29041 ft 457 kts 178°
2026-04-15 16:46 36.68332 132.86487 29039 ft 458 kts 178°
2026-04-15 16:47 36.62055 132.87761 29040 ft 458 kts 178°
2026-04-15 16:47 36.55791 132.89027 29041 ft 458 kts 178°
2026-04-15 16:48 36.49537 132.90285 29040 ft 458 kts 178°
2026-04-15 16:48 36.43243 132.91548 29040 ft 458 kts 178°
2026-04-15 16:49 36.36959 132.92806 29039 ft 458 kts 178°
2026-04-15 16:49 36.30689 132.94060 29040 ft 458 kts 178°
2026-04-15 16:50 36.24397 132.95314 29041 ft 458 kts 178°
2026-04-15 16:50 36.18108 132.96568 29040 ft 458 kts 178°
2026-04-15 16:51 36.11807 132.97821 29039 ft 458 kts 178°
2026-04-15 16:51 36.05550 132.99062 29040 ft 458 kts 178°
2026-04-15 16:52 35.99259 133.00310 29040 ft 458 kts 178°
2026-04-15 16:52 35.92967 133.01555 29040 ft 458 kts 178°
2026-04-15 16:53 35.86685 133.02795 29040 ft 458 kts 178°
2026-04-15 16:53 35.80386 133.04038 29041 ft 458 kts 178°
2026-04-15 16:54 35.74109 133.05272 29040 ft 458 kts 178°
2026-04-15 16:54 35.67828 133.06506 29040 ft 458 kts 178°
2026-04-15 16:55 35.61538 133.07742 29040 ft 459 kts 177°
2026-04-15 16:55 35.58409 133.08800 29028 ft 472 kts 163°
2026-04-15 16:55 35.55544 133.10849 29033 ft 486 kts 146°
2026-04-15 16:55 35.53162 133.13855 29038 ft 497 kts 129°
2026-04-15 16:56 35.51509 133.17625 29039 ft 505 kts 111°
2026-04-15 16:56 35.49921 133.26067 29045 ft 507 kts 102°
2026-04-15 16:57 35.48508 133.34523 29042 ft 506 kts 103°
2026-04-15 16:57 35.46972 133.42929 29041 ft 506 kts 104°
2026-04-15 16:58 35.45399 133.51390 29041 ft 506 kts 104°
2026-04-15 16:58 35.43826 133.59804 29041 ft 506 kts 104°
2026-04-15 16:59 35.42252 133.68219 29039 ft 506 kts 104°
2026-04-15 16:59 35.40679 133.76610 29040 ft 506 kts 104°
2026-04-15 17:00 35.39094 133.85014 29040 ft 506 kts 104°
2026-04-15 17:00 35.37492 133.93462 29040 ft 506 kts 104°
2026-04-15 17:01 35.35887 134.01875 29040 ft 506 kts 104°
2026-04-15 17:01 35.34276 134.10290 29040 ft 506 kts 104°
2026-04-15 17:02 35.32679 134.18674 29041 ft 506 kts 104°
2026-04-15 17:02 35.31121 134.27092 29040 ft 506 kts 104°
2026-04-15 17:03 35.29562 134.35461 29040 ft 506 kts 104°
2026-04-15 17:03 35.27978 134.43878 29040 ft 506 kts 104°
2026-04-15 17:04 35.26409 134.52245 29040 ft 506 kts 104°
2026-04-15 17:04 35.24849 134.60684 29041 ft 506 kts 104°
2026-04-15 17:05 35.23287 134.69078 29038 ft 506 kts 104°
2026-04-15 17:05 35.21714 134.77498 29026 ft 506 kts 104°
2026-04-15 17:06 35.20137 134.85870 28999 ft 506 kts 104°
2026-04-15 17:06 35.18548 134.94255 28965 ft 506 kts 104°
2026-04-15 17:07 35.16942 135.02676 28944 ft 507 kts 103°
2026-04-15 17:07 35.15334 135.11096 28935 ft 508 kts 103°
2026-04-15 17:08 35.13727 135.19487 28932 ft 508 kts 103°
2026-04-15 17:08 35.11042 135.27391 28922 ft 502 kts 131°
2026-04-15 17:08 35.08605 135.30307 28927 ft 492 kts 149°
2026-04-15 17:09 35.05617 135.32274 28929 ft 480 kts 166°
2026-04-15 17:09 34.99229 135.34319 28935 ft 473 kts 172°
2026-04-15 17:10 34.92820 135.36281 28933 ft 472 kts 170°
2026-04-15 17:10 34.86511 135.38368 28932 ft 470 kts 169°
2026-04-15 17:11 34.80124 135.40057 28929 ft 466 kts 176°
2026-04-15 17:11 34.73705 135.40794 28930 ft 461 kts 182°
2026-04-15 17:12 34.64114 135.41339 28931 ft 461 kts 182°
2026-04-15 17:12 34.57728 135.41715 28931 ft 461 kts 182°
2026-04-15 17:13 34.51307 135.42097 28931 ft 461 kts 182°
2026-04-15 17:13 34.44896 135.42479 28931 ft 461 kts 182°
2026-04-15 17:14 34.38513 135.42856 28931 ft 461 kts 182°
2026-04-15 17:14 34.32075 135.43231 28931 ft 461 kts 182°
2026-04-15 17:15 34.25655 135.43608 28931 ft 461 kts 182°
2026-04-15 17:15 34.19290 135.43985 28930 ft 461 kts 182°
2026-04-15 17:16 34.12881 135.44365 28927 ft 461 kts 182°
2026-04-15 17:16 34.06469 135.44745 28920 ft 461 kts 182°
2026-04-15 17:17 34.00100 135.45242 28909 ft 464 kts 176°
2026-04-15 17:17 33.93803 135.47321 28900 ft 475 kts 160°
2026-04-15 17:18 33.87938 135.50995 28889 ft 478 kts 154°
2026-04-15 17:18 33.82117 135.54895 28881 ft 478 kts 154°
2026-04-15 17:19 33.76315 135.58743 28877 ft 478 kts 154°
2026-04-15 17:19 33.70496 135.62575 28876 ft 478 kts 155°
2026-04-15 17:20 33.64691 135.66393 28875 ft 478 kts 155°
2026-04-15 17:20 33.58861 135.70242 28875 ft 478 kts 155°
2026-04-15 17:21 33.53048 135.74052 28876 ft 478 kts 155°
2026-04-15 17:21 33.47252 135.77815 28875 ft 477 kts 157°
2026-04-15 17:22 33.41213 135.81044 28876 ft 473 kts 164°
2026-04-15 17:22 33.35068 135.83713 28876 ft 472 kts 165°
2026-04-15 17:23 33.28876 135.86385 28876 ft 473 kts 164°
2026-04-15 17:23 33.22716 135.89061 28875 ft 473 kts 164°
2026-04-15 17:24 33.16539 135.91750 28876 ft 473 kts 164°
2026-04-15 17:24 33.10344 135.94438 28876 ft 473 kts 164°
2026-04-15 17:25 33.04205 135.97090 28877 ft 472 kts 163°
2026-04-15 17:25 32.98067 135.99741 28877 ft 469 kts 163°
2026-04-15 17:26 32.91959 136.02377 28876 ft 468 kts 163°
2026-04-15 17:26 32.85813 136.05023 28875 ft 468 kts 163°
2026-04-15 17:27 32.79710 136.07640 28876 ft 468 kts 163°
2026-04-15 17:27 32.73564 136.10280 28876 ft 468 kts 163°
2026-04-15 17:28 32.67450 136.12903 28876 ft 468 kts 163°
2026-04-15 17:28 32.61346 136.15517 28876 ft 468 kts 163°
2026-04-15 17:29 32.55242 136.18127 28876 ft 468 kts 163°
2026-04-15 17:29 32.49143 136.20731 28876 ft 468 kts 163°
2026-04-15 17:30 32.43043 136.23332 28876 ft 468 kts 163°
2026-04-15 17:30 32.36912 136.25941 28876 ft 468 kts 163°
2026-04-15 17:31 32.30817 136.28532 28876 ft 468 kts 163°
2026-04-15 17:31 32.24716 136.31122 28876 ft 468 kts 163°
2026-04-15 17:32 32.18578 136.33723 28876 ft 468 kts 163°
2026-04-15 17:32 32.12472 136.36307 28876 ft 468 kts 163°
2026-04-15 17:33 32.06381 136.38881 28876 ft 468 kts 163°
2026-04-15 17:33 32.00248 136.41469 28876 ft 468 kts 163°
2026-04-15 17:34 31.94153 136.44037 28876 ft 468 kts 163°
2026-04-15 17:34 31.88048 136.46605 28875 ft 468 kts 163°
2026-04-15 17:35 31.81906 136.49175 28875 ft 468 kts 163°
2026-04-15 17:35 31.75819 136.51723 28876 ft 468 kts 163°
2026-04-15 17:36 31.69686 136.54292 28875 ft 468 kts 163°
2026-04-15 17:36 31.63574 136.56850 28876 ft 468 kts 163°
2026-04-15 17:37 31.57490 136.59393 28876 ft 468 kts 163°
2026-04-15 17:37 31.51375 136.61948 28876 ft 468 kts 163°
2026-04-15 17:38 31.45234 136.64506 28876 ft 468 kts 163°
2026-04-15 17:38 31.39147 136.67058 28875 ft 468 kts 163°
2026-04-15 17:39 31.33029 136.69618 28876 ft 468 kts 163°
2026-04-15 17:39 31.26902 136.72168 28876 ft 468 kts 163°
2026-04-15 17:40 31.20812 136.74693 28876 ft 468 kts 163°
2026-04-15 17:40 31.14694 136.77225 28876 ft 468 kts 163°
2026-04-15 17:41 31.08555 136.79761 28876 ft 468 kts 163°
2026-04-15 17:41 31.02463 136.82274 28876 ft 468 kts 163°
2026-04-15 17:42 30.96320 136.84801 28876 ft 468 kts 163°
2026-04-15 17:42 30.90229 136.87303 28876 ft 467 kts 162°
2026-04-15 17:43 30.84105 136.89813 28876 ft 466 kts 162°
2026-04-15 17:43 30.78035 136.92300 28876 ft 466 kts 162°
2026-04-15 17:44 30.71926 136.94801 28876 ft 466 kts 162°
2026-04-15 17:44 30.65857 136.97286 28876 ft 466 kts 162°
2026-04-15 17:45 30.59748 136.99782 28876 ft 466 kts 162°
2026-04-15 17:45 30.53642 137.02275 28876 ft 466 kts 162°
2026-04-15 17:46 30.47576 137.04747 28876 ft 466 kts 162°
2026-04-15 17:46 30.41468 137.07234 28876 ft 466 kts 162°
2026-04-15 17:47 30.35397 137.09701 28876 ft 466 kts 162°
2026-04-15 17:47 30.29277 137.12186 28876 ft 466 kts 162°
2026-04-15 17:48 30.23212 137.14645 28876 ft 466 kts 162°
2026-04-15 17:48 30.17106 137.17117 28876 ft 466 kts 162°
2026-04-15 17:49 30.10996 137.19588 28876 ft 466 kts 162°
2026-04-15 17:49 30.04915 137.22043 28876 ft 466 kts 162°
2026-04-15 17:50 29.98795 137.24512 28876 ft 465 kts 162°
2026-04-15 17:50 29.92726 137.26961 28876 ft 465 kts 162°
2026-04-15 17:51 29.86616 137.29417 28876 ft 465 kts 162°
2026-04-15 17:51 29.80504 137.31863 28876 ft 465 kts 162°
2026-04-15 17:52 29.74440 137.34293 28876 ft 465 kts 162°
2026-04-15 17:52 29.68332 137.36740 28876 ft 466 kts 162°
2026-04-15 17:53 29.62214 137.39191 28876 ft 465 kts 162°
2026-04-15 17:53 29.56129 137.41625 28876 ft 465 kts 162°
2026-04-15 17:54 29.50025 137.44063 28876 ft 466 kts 162°
2026-04-15 17:54 29.43953 137.46484 28876 ft 465 kts 162°
2026-04-15 17:55 29.37844 137.48918 28876 ft 465 kts 162°
2026-04-15 17:55 29.31763 137.51338 28876 ft 466 kts 162°
2026-04-15 17:56 29.25643 137.53770 28876 ft 465 kts 162°
2026-04-15 17:56 29.19537 137.56195 28876 ft 466 kts 162°
2026-04-15 17:57 29.13463 137.58603 28876 ft 466 kts 162°
2026-04-15 17:57 29.07336 137.61028 28875 ft 467 kts 162°
2026-04-15 17:58 29.01222 137.63440 28875 ft 469 kts 161°
2026-04-15 17:58 28.95034 137.65887 28875 ft 472 kts 161°
2026-04-15 17:59 28.88842 137.68362 28874 ft 472 kts 161°
2026-04-15 17:59 28.82660 137.70807 28876 ft 472 kts 161°
2026-04-15 18:00 28.76501 137.73230 28876 ft 472 kts 161°
2026-04-15 18:00 28.70299 137.75667 28876 ft 472 kts 161°
2026-04-15 18:01 28.64122 137.78090 28876 ft 472 kts 161°
2026-04-15 18:01 28.57919 137.80521 28876 ft 472 kts 161°
2026-04-15 18:02 28.51691 137.82959 28876 ft 472 kts 161°
2026-04-15 18:02 28.45517 137.85373 28876 ft 472 kts 161°
2026-04-15 18:03 28.39344 137.87784 28876 ft 472 kts 161°
2026-04-15 18:03 28.33124 137.90210 28876 ft 472 kts 161°
2026-04-15 18:04 28.26954 137.92613 28876 ft 472 kts 161°
2026-04-15 18:04 28.20740 137.95032 28876 ft 472 kts 161°
2026-04-15 18:05 28.14556 137.97435 28876 ft 472 kts 161°
2026-04-15 18:05 28.08357 137.99840 28876 ft 472 kts 161°
2026-04-15 18:06 28.02179 138.02235 28876 ft 472 kts 161°
2026-04-15 18:06 27.95961 138.04642 28876 ft 472 kts 161°
2026-04-15 18:07 27.89795 138.07027 28876 ft 472 kts 161°
2026-04-15 18:07 27.83560 138.09425 28880 ft 472 kts 162°
2026-04-15 18:08 27.77352 138.11812 28899 ft 472 kts 162°
2026-04-15 18:08 27.71176 138.14188 28913 ft 472 kts 162°
2026-04-15 18:09 27.64986 138.16568 28920 ft 472 kts 161°
2026-04-15 18:09 27.58786 138.18950 28923 ft 472 kts 161°
2026-04-15 18:10 27.52574 138.21335 28925 ft 472 kts 161°
2026-04-15 18:10 27.46353 138.23721 28925 ft 472 kts 161°
2026-04-15 18:11 27.40156 138.26094 28926 ft 472 kts 161°
2026-04-15 18:11 27.33962 138.28465 28926 ft 472 kts 161°
2026-04-15 18:12 27.27747 138.30839 28926 ft 472 kts 161°
2026-04-15 18:12 27.21577 138.33194 28926 ft 472 kts 161°
2026-04-15 18:13 27.15340 138.35571 28926 ft 472 kts 161°
2026-04-15 18:14 27.06024 138.39117 28926 ft 472 kts 161°
2026-04-15 18:14 26.99857 138.41461 28926 ft 471 kts 161°
2026-04-15 18:15 26.93640 138.43820 28926 ft 471 kts 161°
2026-04-15 18:15 26.87483 138.46172 28931 ft 458 kts 163°
2026-04-15 18:16 26.81522 138.48418 28927 ft 453 kts 163°
2026-04-15 18:16 26.75576 138.50652 28926 ft 452 kts 163°
2026-04-15 18:17 26.69626 138.52895 28925 ft 453 kts 163°
2026-04-15 18:17 26.63685 138.55135 28925 ft 453 kts 163°
2026-04-15 18:18 26.57736 138.57378 28925 ft 453 kts 163°
2026-04-15 18:18 26.51765 138.59627 28925 ft 453 kts 163°
2026-04-15 18:19 26.45817 138.61865 28925 ft 453 kts 163°
2026-04-15 18:19 26.39840 138.64111 28926 ft 453 kts 163°
2026-04-15 18:20 26.33860 138.66370 28925 ft 453 kts 163°
2026-04-15 18:20 26.27919 138.68625 28925 ft 452 kts 163°
2026-04-15 18:21 26.21969 138.70866 28925 ft 452 kts 164°
2026-04-15 18:21 26.16024 138.73094 28925 ft 452 kts 164°
2026-04-15 18:22 26.10063 138.75323 28925 ft 452 kts 164°
2026-04-15 18:22 26.04110 138.77547 28925 ft 452 kts 164°
2026-04-15 18:23 25.98152 138.79770 28925 ft 452 kts 164°
2026-04-15 18:23 25.92209 138.81984 28925 ft 452 kts 164°
2026-04-15 18:24 25.86259 138.84193 28926 ft 452 kts 164°
2026-04-15 18:24 25.80304 138.86398 28925 ft 452 kts 164°
2026-04-15 18:25 25.74353 138.88605 28925 ft 452 kts 164°
2026-04-15 18:25 25.68358 138.90828 28923 ft 453 kts 164°
2026-04-15 18:26 25.62402 138.93036 28916 ft 454 kts 164°
2026-04-15 18:26 25.56392 138.95261 28910 ft 454 kts 164°
2026-04-15 18:27 25.50410 138.97475 28906 ft 454 kts 164°
2026-04-15 18:27 25.44431 138.99684 28905 ft 454 kts 164°
2026-04-15 18:28 25.38376 139.01898 28899 ft 463 kts 161°
2026-04-15 18:28 25.32219 139.04181 28903 ft 472 kts 161°
2026-04-15 18:29 25.25965 139.06491 28904 ft 474 kts 162°
2026-04-15 18:29 25.19715 139.08792 28904 ft 475 kts 162°
2026-04-15 18:30 25.13443 139.11096 28904 ft 475 kts 162°
2026-04-15 18:30 25.07160 139.13400 28905 ft 475 kts 161°
2026-04-15 18:31 25.00927 139.15683 28905 ft 474 kts 161°
2026-04-15 18:31 24.94715 139.17981 28905 ft 471 kts 161°
2026-04-15 18:32 24.88534 139.20281 28903 ft 470 kts 160°
2026-04-15 18:32 24.82353 139.22565 28904 ft 470 kts 160°
2026-04-15 18:33 24.76140 139.24860 28904 ft 471 kts 160°
2026-04-15 18:33 24.69940 139.27153 28904 ft 470 kts 160°
2026-04-15 18:34 24.63738 139.29443 28904 ft 471 kts 160°
2026-04-15 18:34 24.57544 139.31731 28904 ft 471 kts 160°
2026-04-15 18:35 24.51351 139.34015 28905 ft 470 kts 160°
2026-04-15 18:35 24.45128 139.36307 28904 ft 470 kts 160°
2026-04-15 18:36 24.38933 139.38586 28904 ft 470 kts 160°
2026-04-15 18:36 24.32746 139.40861 28904 ft 470 kts 160°
2026-04-15 18:37 24.26545 139.43138 28904 ft 470 kts 160°
2026-04-15 18:37 24.20372 139.45404 28904 ft 470 kts 160°
2026-04-15 18:38 24.14183 139.47672 28904 ft 471 kts 160°
2026-04-15 18:38 24.07962 139.49950 28904 ft 470 kts 160°
2026-04-15 18:39 24.01776 139.52212 28904 ft 470 kts 160°
2026-04-15 18:39 23.95572 139.54480 28904 ft 470 kts 160°
2026-04-15 18:40 23.89369 139.56744 28904 ft 470 kts 160°
2026-04-15 18:40 23.83169 139.58993 28904 ft 470 kts 160°
2026-04-15 18:41 23.76975 139.61241 28904 ft 470 kts 160°
2026-04-15 18:41 23.70793 139.63487 28904 ft 470 kts 160°
2026-04-15 18:42 23.64603 139.65741 28904 ft 470 kts 161°
2026-04-15 18:42 23.58408 139.68022 28904 ft 470 kts 161°
2026-04-15 18:43 23.52193 139.70294 28904 ft 471 kts 161°
2026-04-15 18:43 23.45995 139.72546 28904 ft 471 kts 161°
2026-04-15 18:44 23.39763 139.74805 28904 ft 470 kts 161°
2026-04-15 18:44 23.33562 139.77048 28904 ft 470 kts 161°
2026-04-15 18:45 23.27396 139.79275 28904 ft 470 kts 161°
2026-04-15 18:45 23.21150 139.81531 28904 ft 470 kts 161°
2026-04-15 18:46 23.14963 139.83762 28905 ft 470 kts 161°
2026-04-15 18:46 23.08763 139.85996 28904 ft 470 kts 161°
2026-04-15 18:47 23.02589 139.88219 28904 ft 470 kts 161°
2026-04-15 18:47 22.96368 139.90456 28905 ft 469 kts 161°
2026-04-15 18:48 22.90199 139.92671 28905 ft 467 kts 161°
2026-04-15 18:48 22.84057 139.94867 28904 ft 465 kts 161°
2026-04-15 18:49 22.77917 139.97061 28904 ft 465 kts 161°
2026-04-15 18:49 22.71783 139.99255 28904 ft 465 kts 161°
2026-04-15 18:50 22.65627 140.01457 28904 ft 465 kts 161°
2026-04-15 18:50 22.59493 140.03650 28904 ft 465 kts 161°
2026-04-15 18:51 22.53343 140.05847 28904 ft 465 kts 161°
2026-04-15 18:51 22.47241 140.08025 28904 ft 465 kts 161°
2026-04-15 18:52 22.41271 140.10155 28904 ft 465 kts 161°
2026-04-15 18:52 22.35123 140.12344 28904 ft 465 kts 161°
2026-04-15 18:53 22.29013 140.14519 28904 ft 465 kts 161°
2026-04-15 18:53 22.22876 140.16702 28904 ft 465 kts 161°
2026-04-15 18:54 22.16724 140.18887 28907 ft 466 kts 161°
2026-04-15 18:54 22.10618 140.21056 28914 ft 466 kts 161°
2026-04-15 18:55 22.04464 140.23239 28925 ft 466 kts 161°
2026-04-15 18:55 21.98286 140.25429 28948 ft 466 kts 161°
2026-04-15 18:56 21.92165 140.27594 28974 ft 467 kts 161°
2026-04-15 18:56 21.85968 140.29781 28995 ft 467 kts 161°
2026-04-15 18:57 21.79806 140.31946 29008 ft 467 kts 161°
2026-04-15 18:57 21.73653 140.34114 29014 ft 467 kts 161°
2026-04-15 18:58 21.67491 140.36287 29018 ft 467 kts 161°
2026-04-15 18:58 21.61334 140.38457 29019 ft 467 kts 161°
2026-04-15 18:59 21.55170 140.40626 29019 ft 467 kts 161°
2026-04-15 18:59 21.49003 140.42796 29019 ft 467 kts 161°
2026-04-15 19:00 21.42866 140.44954 29019 ft 467 kts 161°
2026-04-15 19:00 21.36709 140.47116 29019 ft 467 kts 161°
2026-04-15 19:01 21.30514 140.49291 29019 ft 467 kts 161°
2026-04-15 19:01 21.24357 140.51450 29019 ft 467 kts 161°
2026-04-15 19:02 21.18212 140.53604 29019 ft 467 kts 161°
2026-04-15 19:02 21.12033 140.55768 29019 ft 467 kts 161°
2026-04-15 19:03 21.05888 140.57919 29020 ft 465 kts 161°
2026-04-15 19:03 20.99882 140.60329 29021 ft 461 kts 155°
2026-04-15 19:04 20.94183 140.63428 29021 ft 458 kts 150°
2026-04-15 19:04 20.88646 140.66765 29019 ft 458 kts 150°
2026-04-15 19:05 20.83087 140.70116 29019 ft 458 kts 150°
2026-04-15 19:05 20.77543 140.73439 29019 ft 458 kts 150°
2026-04-15 19:06 20.71982 140.76764 29019 ft 458 kts 150°
2026-04-15 19:06 20.66458 140.80063 29019 ft 458 kts 150°
2026-04-15 19:07 20.60877 140.83394 29019 ft 458 kts 150°
2026-04-15 19:07 20.55355 140.86685 29019 ft 458 kts 150°
2026-04-15 19:08 20.49791 140.89998 29019 ft 458 kts 150°
2026-04-15 19:08 20.44234 140.93304 29018 ft 459 kts 150°
2026-04-15 19:09 20.38630 140.96637 29018 ft 461 kts 150°
2026-04-15 19:09 20.33051 140.99951 29018 ft 462 kts 150°
2026-04-15 19:10 20.27427 141.03290 29018 ft 463 kts 150°
2026-04-15 19:10 20.21796 141.06630 29018 ft 464 kts 150°
2026-04-15 19:11 20.16123 141.09992 29018 ft 466 kts 150°
2026-04-15 19:11 20.10482 141.13332 29019 ft 467 kts 150°
2026-04-15 19:12 20.04817 141.16684 29019 ft 467 kts 150°
2026-04-15 19:12 19.99121 141.20050 29019 ft 467 kts 150°
2026-04-15 19:13 19.93464 141.23392 29019 ft 467 kts 150°
2026-04-15 19:13 19.87795 141.26733 29019 ft 467 kts 150°
2026-04-15 19:14 19.82095 141.30075 29019 ft 467 kts 150°
2026-04-15 19:14 19.76429 141.33405 29019 ft 467 kts 150°
2026-04-15 19:15 19.70767 141.36734 29019 ft 467 kts 150°
2026-04-15 19:15 19.65080 141.40079 29019 ft 467 kts 150°
2026-04-15 19:16 19.59416 141.43407 29019 ft 467 kts 150°
2026-04-15 19:16 19.53730 141.46747 29020 ft 464 kts 150°
2026-04-15 19:17 19.48134 141.50030 29019 ft 464 kts 150°
2026-04-15 19:17 19.42504 141.53331 29019 ft 464 kts 150°
2026-04-15 19:18 19.36866 141.56635 29019 ft 464 kts 150°
2026-04-15 19:18 19.28400 141.61589 29019 ft 464 kts 150°
2026-04-15 19:19 19.22769 141.64882 29019 ft 464 kts 150°
2026-04-15 19:19 19.17174 141.68175 29019 ft 464 kts 150°
2026-04-15 19:20 19.11549 141.71480 29019 ft 464 kts 150°
2026-04-15 19:20 19.05916 141.74774 29019 ft 464 kts 150°
2026-04-15 19:21 19.00276 141.78059 29020 ft 463 kts 150°
2026-04-15 19:21 18.94666 141.81322 29022 ft 459 kts 149°
2026-04-15 19:22 18.89163 141.84525 29022 ft 452 kts 149°
2026-04-15 19:22 18.83672 141.87706 29020 ft 447 kts 149°
2026-04-15 19:23 18.78242 141.90852 29019 ft 447 kts 149°
2026-04-15 19:23 18.72816 141.94000 29019 ft 447 kts 149°
2026-04-15 19:24 18.67415 141.97133 29019 ft 447 kts 149°
2026-04-15 19:24 18.61982 142.00282 29019 ft 447 kts 149°
2026-04-15 19:25 18.56546 142.03432 29019 ft 447 kts 149°
2026-04-15 19:25 18.51109 142.06578 29019 ft 447 kts 149°
2026-04-15 19:26 18.45670 142.09724 29019 ft 447 kts 149°
2026-04-15 19:26 18.40232 142.12869 29019 ft 447 kts 149°
2026-04-15 19:27 18.34827 142.15991 29019 ft 447 kts 149°
2026-04-15 19:27 18.29397 142.19127 29019 ft 447 kts 149°
2026-04-15 19:28 18.23952 142.22267 29019 ft 447 kts 149°
2026-04-15 19:28 18.18516 142.25400 29019 ft 447 kts 149°
2026-04-15 19:29 18.13088 142.28528 29019 ft 447 kts 149°
2026-04-15 19:29 18.07655 142.31654 29019 ft 447 kts 149°
2026-04-15 19:30 18.02213 142.34786 29019 ft 447 kts 149°
2026-04-15 19:30 17.96774 142.37912 29019 ft 447 kts 149°
2026-04-15 19:31 17.91339 142.41032 29019 ft 447 kts 149°
2026-04-15 19:31 17.85896 142.44147 29019 ft 447 kts 149°
2026-04-15 19:32 17.80456 142.47252 29019 ft 447 kts 149°
2026-04-15 19:32 17.75015 142.50365 29019 ft 447 kts 149°
2026-04-15 19:33 17.69572 142.53481 29019 ft 447 kts 149°
2026-04-15 19:33 17.64126 142.56598 29019 ft 447 kts 149°
2026-04-15 19:34 17.58703 142.59701 29019 ft 447 kts 149°
2026-04-15 19:34 17.53252 142.62817 29019 ft 447 kts 149°
2026-04-15 19:35 17.47805 142.65933 29020 ft 447 kts 149°
2026-04-15 19:35 17.42391 142.69052 29019 ft 447 kts 149°
2026-04-15 19:36 17.36948 142.72170 29019 ft 447 kts 149°
2026-04-15 19:36 17.31491 142.75281 29019 ft 447 kts 149°
2026-04-15 19:37 17.26039 142.78386 29019 ft 447 kts 149°
2026-04-15 19:37 17.20596 142.81483 29019 ft 447 kts 149°
2026-04-15 19:38 17.15074 142.84471 29019 ft 448 kts 152°
2026-04-15 19:38 17.09502 142.87367 29018 ft 449 kts 152°
2026-04-15 19:39 17.07678 142.88316 29018 ft 450 kts 152°